Weather History for KLBF - June, 2014

Change the Weather History Date:

Monday, June 2, 2014

  Actual Average Record
Temperature  
Mean Temperature 66 °F 63 °F  
Max Temperature 82 °F 77 °F 93 °F (2002)
Min Temperature 49 °F 50 °F 29 °F (1969)
Degree Days  
Heating Degree Days 0 4  
Month to date heating degree days 2 8  
Since 1 June heating degree days 2 8  
Since 1 July heating degree days 6832 6643  
Cooling Degree Days 1 2  
Month to date cooling degree days 1 4  
Year to date cooling degree days 50 32  
Since 1 June cooling degree days 1 4  
Growing Degree Days 15 (Base 50)    
Moisture  
Dew Point 53 °F    
Average Humidity 65    
Maximum Humidity 96    
Minimum Humidity 33    
Precipitation  
Precipitation 0.00 in 0.13 in 2.13 in (2005)
Month to date precipitation 0.64 0.26  
Year to date precipitation 4.93 7.70  
Snow  
Snow 0.00 in 0.00 in 0.00 in (2002)
Month to date snowfall 0.0 0.0  
Since 1 June snowfall 0.0 0.0  
Since 1 July snowfall 29.8 28.5  
Snow Depth 0.00 in    
Sea Level Pressure  
Sea Level Pressure 29.97 in    
Wind  
Wind Speed 6 mph (NW)    
Max Wind Speed 15 mph    
Max Gust Speed 18 mph    
Visibility 10 miles    
Events      
T = Trace of Precipitation, MM = Missing Value Source: NWS Daily Summary

Daily Weather History Graph

Daily Weather History Graph

Search for Another Location

Airport or City:

Trip Planner

Search our weather history database for the weather conditions in past years. The results will help you decide how hot, cold, wet, or windy it might be!

Date:

Astronomy

Jun. 02, 2014 Rise Set
Actual Time 6:12 AM CDT 9:09 PM CDT
Civil Twilight 5:39 AM CDT 9:42 PM CDT
Nautical Twilight 4:57 AM CDT 10:24 PM CDT
Astronomical Twilight 4:08 AM CDT 11:13 PM CDT
Moon 10:42 AM CDT (6/2) 12:04 AM CDT (6/2)
Length of Visible Light 16h 03m
Length of Day
14h 57m
Waxing Crescent, 22% of the Moon is Illuminated
Jun 2
Waxing Crescent
Jun 5
First Quarter
Jun 12
Full
Jun 19
Last Quarter
Jun 27
New

Hourly Weather History & Observations

Time (CDT) Temp. Dew Point Humidity Pressure Visibility Wind Dir Wind Speed Gust Speed Precip Events Conditions
12:53 AM 54.0 °F 51.1 °F 90% 29.94 in 10.0 mi NW 8.1 mph - N/A   Clear
1:53 AM 52.0 °F 50.0 °F 93% 29.94 in 10.0 mi NW 9.2 mph - N/A   Clear
2:53 AM 50.0 °F 48.9 °F 96% 29.95 in 10.0 mi NW 6.9 mph - N/A   Clear
3:53 AM 53.1 °F 51.1 °F 93% 29.95 in 10.0 mi WNW 6.9 mph - N/A   Clear
4:53 AM 51.1 °F 48.9 °F 92% 29.96 in 10.0 mi NW 5.8 mph - N/A   Clear
5:53 AM 51.1 °F 48.9 °F 92% 29.98 in 10.0 mi WNW 6.9 mph - N/A   Clear
6:53 AM 50.0 °F 48.0 °F 93% 30.00 in 10.0 mi WNW 5.8 mph - N/A   Clear
7:53 AM 57.0 °F 54.0 °F 89% 30.01 in 10.0 mi WNW 5.8 mph - N/A   Clear
8:53 AM 60.1 °F 53.1 °F 78% 30.03 in 10.0 mi WNW 9.2 mph - N/A   Clear
9:53 AM 64.9 °F 55.0 °F 70% 30.02 in 10.0 mi WNW 5.8 mph - N/A   Clear
10:53 AM 69.1 °F 55.0 °F 61% 30.00 in 10.0 mi WNW 8.1 mph - N/A   Clear
11:53 AM 71.6 °F 55.4 °F 57% 30.03 in 10.0 mi WNW 12.7 mph - N/A   Clear
12:53 PM 73.4 °F 53.6 °F 50% 30.03 in 10.0 mi West 10.4 mph - N/A   Mostly Cloudy
1:53 PM 75.9 °F 55.0 °F 48% 29.98 in 10.0 mi Variable 4.6 mph - N/A   Clear
2:53 PM 77.0 °F 53.1 °F 43% 29.96 in 10.0 mi Variable 3.5 mph - N/A   Clear
3:53 PM 78.8 °F 51.8 °F 39% 29.99 in 10.0 mi Variable 4.6 mph - N/A   Clear
4:53 PM 81.0 °F 52.0 °F 36% 29.94 in 10.0 mi East 4.6 mph - N/A   Clear
5:53 PM 80.1 °F 48.9 °F 34% 29.93 in 10.0 mi Calm Calm - N/A   Clear
6:53 PM 81.0 °F 50.0 °F 34% 29.92 in 10.0 mi Calm Calm - N/A   Clear
7:53 PM 77.0 °F 55.4 °F 47% 29.98 in 10.0 mi SE 3.5 mph - N/A   Clear
8:53 PM 71.1 °F 59.0 °F 66% 29.93 in 10.0 mi East 4.6 mph - N/A   Clear
9:53 PM 64.9 °F 57.0 °F 75% 29.95 in 10.0 mi Calm Calm - N/A   Clear
10:53 PM 62.1 °F 55.0 °F 78% 29.97 in 10.0 mi East 8.1 mph - N/A   Partly Cloudy
11:53 PM 60.1 °F 54.0 °F 80% 29.96 in 10.0 mi East 6.9 mph - N/A   Clear